Meteo pe oră la Bolshie Ozerki

Astăzi, 19 Mai, Miercuri

Timp Temperatura Precipitaţii Vânt Presiune Umiditate
00:00 +20°C° 0 mm 4 m/s 740 mmHg 49%
01:00 +19°C° 0 mm 3 m/s 740 mmHg 50%
02:00 +19°C° 0 mm 3 m/s 740 mmHg 51%
03:00 +18°C° 0 mm 2 m/s 740 mmHg 52%
04:00 +19°C° 0 mm 3 m/s 740 mmHg 54%
05:00 +19°C° 0 mm 3 m/s 740 mmHg 55%
06:00 +19°C° 0 mm 4 m/s 740 mmHg 56%
07:00 +21°C° 0 mm 5 m/s 740 mmHg 52%
08:00 +23°C° 0 mm 6 m/s 740 mmHg 48%
09:00 +26°C° 0 mm 7 m/s 740 mmHg 44%
10:00 +27°C° 0 mm 7 m/s 740 mmHg 42%
11:00 +28°C° 0 mm 7 m/s 740 mmHg 40%
12:00 +29°C° 0 mm 7 m/s 740 mmHg 37%
13:00 +30°C° 0 mm 7 m/s 740 mmHg 38%
14:00 +30°C° 0 mm 7 m/s 740 mmHg 38%
15:00 +32°C° 0 mm 7 m/s 740 mmHg 38%
16:00 +29°C° 0 mm 6 m/s 740 mmHg 43%
17:00 +27°C° 0 mm 5 m/s 739 mmHg 48%
18:00 +25°C° 0 mm 4 m/s 739 mmHg 53%
19:00 +25°C° 0 mm 5 m/s 739 mmHg 52%
20:00 +24°C° 0 mm 7 m/s 739 mmHg 51%
21:00 +23°C° 0 mm 8 m/s 739 mmHg 50%
22:00 +23°C° 0 mm 8 m/s 739 mmHg 51%
23:00 +22°C° 0 mm 7 m/s 739 mmHg 52%

Mâine, 20 Mai, Joi

Timp Temperatura Precipitaţii Vânt Presiune Umiditate
00:00 +21°C° 0 mm 7 m/s 740 mmHg 54%
01:00 +20°C° 0.2 mm 7 m/s 740 mmHg 60%
02:00 +19°C° 0.2 mm 6 m/s 740 mmHg 67%
03:00 +17°C° 0.2 mm 6 m/s 740 mmHg 74%
04:00 +17°C° 0.1 mm 6 m/s 740 mmHg 75%
05:00 +17°C° 0.1 mm 6 m/s 740 mmHg 76%
06:00 +17°C° 0.1 mm 6 m/s 740 mmHg 77%
07:00 +19°C° 0 mm 6 m/s 740 mmHg 74%
08:00 +20°C° 0 mm 6 m/s 740 mmHg 70%
09:00 +21°C° 0 mm 6 m/s 740 mmHg 66%
10:00 +22°C° 0 mm 6 m/s 741 mmHg 62%
11:00 +23°C° 0 mm 6 m/s 741 mmHg 58%
12:00 +23°C° 0 mm 6 m/s 741 mmHg 54%
13:00 +22°C° 0 mm 5 m/s 741 mmHg 57%
14:00 +21°C° 0 mm 5 m/s 741 mmHg 60%
15:00 +20°C° 0 mm 5 m/s 741 mmHg 63%
16:00 +19°C° 0.1 mm 4 m/s 741 mmHg 65%
17:00 +19°C° 0.1 mm 3 m/s 741 mmHg 67%
18:00 +18°C° 0.1 mm 2 m/s 741 mmHg 70%
19:00 +17°C° 0 mm 2 m/s 741 mmHg 72%
20:00 +17°C° 0 mm 2 m/s 741 mmHg 75%
21:00 +16°C° 0 mm 2 m/s 740 mmHg 78%
22:00 +16°C° 0 mm 2 m/s 740 mmHg 78%
23:00 +16°C° 0 mm 2 m/s 740 mmHg 78%

Poimâine, 21 Mai, Vineri

Timp Temperatura Precipitaţii Vânt Presiune Umiditate
00:00 +16°C° 0 mm 2 m/s 740 mmHg 77%
01:00 +15°C° 0 mm 2 m/s 740 mmHg 81%
02:00 +15°C° 0 mm 2 m/s 740 mmHg 84%
03:00 +14°C° 0 mm 2 m/s 740 mmHg 88%
04:00 +14°C° 0 mm 2 m/s 741 mmHg 87%
05:00 +15°C° 0 mm 2 m/s 741 mmHg 86%
06:00 +14°C° 0 mm 3 m/s 741 mmHg 85%
07:00 +16°C° 0.1 mm 3 m/s 741 mmHg 79%
08:00 +17°C° 0.1 mm 4 m/s 741 mmHg 73%
09:00 +19°C° 0.1 mm 5 m/s 741 mmHg 67%
10:00 +19°C° 0.1 mm 5 m/s 741 mmHg 63%
11:00 +20°C° 0.1 mm 5 m/s 742 mmHg 59%
12:00 +20°C° 0.1 mm 6 m/s 742 mmHg 56%
13:00 +20°C° 0 mm 6 m/s 742 mmHg 57%
14:00 +20°C° 0 mm 5 m/s 742 mmHg 58%
15:00 +20°C° 0 mm 5 m/s 742 mmHg 58%
16:00 +20°C° 0 mm 5 m/s 742 mmHg 60%
17:00 +20°C° 0 mm 4 m/s 743 mmHg 62%
18:00 +20°C° 0 mm 4 m/s 743 mmHg 64%
19:00 +18°C° 0 mm 3 m/s 743 mmHg 69%
20:00 +17°C° 0 mm 3 m/s 743 mmHg 74%
21:00 +15°C° 0 mm 2 m/s 744 mmHg 79%
22:00 +15°C° 0 mm 2 m/s 744 mmHg 80%
23:00 +14°C° 0 mm 1 m/s 744 mmHg 80%

22 Mai, Sâmbătă

Timp Temperatura Precipitaţii Vânt Presiune Umiditate
00:00 +14°C° 0 mm 1 m/s 744 mmHg 81%
01:00 +14°C° 0 mm 1 m/s 744 mmHg 83%
02:00 +13°C° 0 mm 1 m/s 745 mmHg 85%
03:00 +13°C° 0 mm 1 m/s 745 mmHg 86%
04:00 +14°C° 0 mm 1 m/s 745 mmHg 84%
05:00 +15°C° 0 mm 1 m/s 745 mmHg 81%
06:00 +15°C° 0 mm 0 m/s 746 mmHg 78%
07:00 +16°C° 0 mm 0 m/s 746 mmHg 73%
08:00 +20°C° 0 mm 1 m/s 746 mmHg 68%
09:00 +21°C° 0 mm 1 m/s 746 mmHg 63%
10:00 +22°C° 0 mm 1 m/s 746 mmHg 60%
11:00 +24°C° 0 mm 2 m/s 746 mmHg 57%
12:00 +25°C° 0 mm 3 m/s 746 mmHg 54%
13:00 +25°C° 0 mm 3 m/s 746 mmHg 52%
14:00 +26°C° 0 mm 4 m/s 745 mmHg 50%
15:00 +27°C° 0 mm 4 m/s 745 mmHg 49%
16:00 +26°C° 0 mm 4 m/s 745 mmHg 54%
17:00 +25°C° 0 mm 4 m/s 745 mmHg 59%
18:00 +23°C° 0 mm 4 m/s 745 mmHg 64%
19:00 +22°C° 0 mm 4 m/s 745 mmHg 66%
20:00 +21°C° 0 mm 4 m/s 745 mmHg 67%
21:00 +20°C° 0 mm 4 m/s 745 mmHg 69%
22:00 +20°C° 0 mm 4 m/s 744 mmHg 69%
23:00 +19°C° 0 mm 4 m/s 744 mmHg 69%

23 Mai, Duminică

Timp Temperatura Precipitaţii Vânt Presiune Umiditate
00:00 +19°C° 0 mm 3 m/s 744 mmHg 68%
01:00 +19°C° 0 mm 3 m/s 744 mmHg 68%
02:00 +19°C° 0 mm 3 m/s 744 mmHg 68%
03:00 +18°C° 0 mm 3 m/s 744 mmHg 68%
04:00 +18°C° 0 mm 3 m/s 744 mmHg 68%
05:00 +19°C° 0 mm 3 m/s 744 mmHg 69%
06:00 +19°C° 0 mm 3 m/s 744 mmHg 69%
07:00 +21°C° 0 mm 4 m/s 744 mmHg 64%
08:00 +22°C° 0 mm 5 m/s 745 mmHg 59%
09:00 +24°C° 0 mm 6 m/s 745 mmHg 53%
10:00 +26°C° 0 mm 6 m/s 744 mmHg 50%
11:00 +27°C° 0 mm 6 m/s 744 mmHg 46%
12:00 +29°C° 0 mm 6 m/s 744 mmHg 43%
13:00 +29°C° 0 mm 6 m/s 744 mmHg 42%
14:00 +30°C° 0 mm 5 m/s 744 mmHg 42%
15:00 +30°C° 0 mm 5 m/s 743 mmHg 42%
16:00 +29°C° 0 mm 5 m/s 743 mmHg 46%
17:00 +28°C° 0 mm 4 m/s 743 mmHg 51%
18:00 +27°C° 0 mm 4 m/s 742 mmHg 55%
19:00 +26°C° 0 mm 4 m/s 742 mmHg 59%
20:00 +24°C° 0 mm 3 m/s 742 mmHg 62%
21:00 +22°C° 0 mm 3 m/s 742 mmHg 65%
22:00 +21°C° 0 mm 3 m/s 742 mmHg 66%
23:00 +21°C° 0 mm 3 m/s 741 mmHg 67%

24 Mai, Luni

Timp Temperatura Precipitaţii Vânt Presiune Umiditate
00:00 +21°C° 0 mm 3 m/s 741 mmHg 68%
01:00 +21°C° 0 mm 4 m/s 741 mmHg 65%
02:00 +20°C° 0 mm 4 m/s 741 mmHg 63%
03:00 +20°C° 0 mm 4 m/s 741 mmHg 60%
04:00 +21°C° 0 mm 4 m/s 741 mmHg 57%
05:00 +21°C° 0 mm 5 m/s 740 mmHg 54%
06:00 +22°C° 0 mm 5 m/s 740 mmHg 51%
07:00 +23°C° 0 mm 6 m/s 740 mmHg 48%
08:00 +26°C° 0 mm 6 m/s 741 mmHg 45%
09:00 +27°C° 0 mm 7 m/s 741 mmHg 43%
10:00 +28°C° 0 mm 7 m/s 741 mmHg 41%
11:00 +30°C° 0 mm 7 m/s 741 mmHg 39%
12:00 +32°C° 0 mm 8 m/s 741 mmHg 37%
13:00 +32°C° 0 mm 7 m/s 741 mmHg 37%
14:00 +32°C° 0 mm 7 m/s 741 mmHg 37%
15:00 +32°C° 0 mm 7 m/s 741 mmHg 37%
16:00 +32°C° 0 mm 5 m/s 741 mmHg 41%
17:00 +30°C° 0 mm 4 m/s 741 mmHg 45%
18:00 +29°C° 0 mm 3 m/s 741 mmHg 49%
19:00 +27°C° 0 mm 2 m/s 741 mmHg 49%
20:00 +26°C° 0 mm 2 m/s 740 mmHg 50%
21:00 +24°C° 0 mm 1 m/s 740 mmHg 50%
22:00 +24°C° 0 mm 2 m/s 740 mmHg 50%
23:00 +22°C° 0 mm 3 m/s 740 mmHg 50%
Arată mai mult

Formular de consimțământ

Meteoprog și furnizorii noștri de servicii pot stoca și accesa date personale, precum cookies, identificatori de dispozitiv sau alte tehnologii similare pe dispozitivul dumneavoastră și procesa astfel de date pentru a personaliza conținutul și reclamele, dar și pentru a oferi caracteristici de social media și pentru a analiza traficul.

  • Stocarea și/sau accesarea informațiilor pe dispozitivul dumneavoastră

    Cookies, identificatori de dispozitiv sau alte informații pot fi stocate sau accesate pe dispozitiv în scopurile indicate mai sus.

  • Reclame și conținut personalizat, evaluarea reclamelor și a conținutului, informații despre audiențe și dezvoltarea produselor

    Reclamele și conținutul pot fi personalizate pe baza unui profil. Pot fi adăugate date suplimentare pentru a personaliza mai bine reclamele și conținutul. Performanța reclamelor și conținutului poate fi măsurată. Pot fi obținute informații despre utilizatorii care au văzut reclamele și conținutul. Aceste date pot fi utilizate pentru a dezvolta sau îmbunătăți experiența utilizatorilor, sistemele și software-ul.

Dând clic pe ‘Sunt de acord’, permiteți utilizarea cookie-urilor menționate, a identificatorilor de dispozitiv, balizelor web sau altor tehnologii similare. Setările pot fi modificate din browser-ul dispozitivului dumneavoastră.

În anumite scopuri, interesele legitime pot prima asupra consimțământului. Puteți citi mai multe informații în acest sens în Politica privind Confidențialitatea Datelor și Cookie.